Track STARLINK-3264 now! 10-day predictions STARLINK-3264 is classified as:
1 50198U 21125AU 22175.46585685 .00001367 00000-0 10402-3 0 9995 2 50198 53.2190 198.4746 0002207 45.3261 314.7910 15.08836325 31804